カタログに戻る

STARLINK-34391

運用中通信VLEO
NORAD 64298·PAYLOAD·🇺🇸 United States

打ち上げ Jun 8, 2025 から Vandenberg Space Force Base

Loading…

次のパス (今後24時間)

TLE

最新Source: CelesTrak SupGP

元期: Sep 14, 2026, 23:07 UTC

1 64298C 25123H   26257.96368056  .00017894  00000+0  62249-3 0  2578
2 64298  70.0001  75.4858 0003822 272.8288  90.0995 15.29566615    17

AllMySatでSTARLINK-34391をリアルタイム追跡

Download on the App Store